Regional Weather Roundup
Issued by NWS Wilmington, NC

Home | Current Version | Previous Version | Text Only | Print | Product List | Glossary On
Versions: 1 2 3 4 5 6 7 8 9 10 11 12 13 14 15 16 17 18 19 20 21 22 23 24 25 26 27 28 29 30 31 32 33 34 35 36 37 38 39 40 41 42 43 44 45 46 47 48 49 50
000
ASUS42 KILM 281813
RWRILM
RWRILM
REGIONAL HOURLY WEATHER ROUNDUP
NATIONAL WEATHER SERVICE WILMINGTON NC
200 PM EDT FRI AUG 28 2015

NOTE: "FAIR" INDICATES FEW OR NO CLOUDS BELOW 12,000 FEET WITH NO
SIGNIFICANT WEATHER AND/OR OBSTRUCTIONS TO VISIBILITY.

...............WFO WILMINGTON COUNTY WARNING AREA...............

......COASTAL NC AND SC COUNTIES......

CITY           SKY/WX    TMP DP  RH WIND       PRES   REMARKS
WILMINGTON     MOSUNNY   86  65  49 N13       30.14S
N MYRTLE BEACH PTSUNNY   85  69  58 NE10      30.13S
MYRTLE BEACH   PTSUNNY   82  70  65 NE15      30.14F

......INLAND NC AND SC COUNTIES.......

CITY           SKY/WX    TMP DP  RH WIND       PRES   REMARKS
LUMBERTON      PTSUNNY   83  61  47 NE10      30.16F
ELIZABETHTOWN  PTSUNNY   82  63  51 CALM      30.17S
WHITEVILLE     PTSUNNY   81  63  53 NE7       30.15F
FLORENCE       PTSUNNY   85  58  39 E15       30.16F
DARLINGTON     PTSUNNY   84  61  45 E12       30.18F

....................REST OF NORTH CAROLINA......................

.........EASTERN NC.........

CITY           SKY/WX    TMP DP  RH WIND       PRES   REMARKS
CAPE HATTERAS  MOSUNNY   82  66  58 NE12G22   30.14F
JACKSONVILLE   PTSUNNY   81  63  54 NE12      30.16S
MOREHEAD CITY  MOSUNNY   82  66  58 NE14G26   30.14F
KENANSVILLE      N/A     81  61  50 E5        30.18S
NEW BERN       PTSUNNY   81  65  58 N12       30.16F
ELIZABETH CITY MOSUNNY   82  62  50 NE12      30.18S

.........CENTRAL NC.........

CITY           SKY/WX    TMP DP  RH WIND       PRES   REMARKS
RALEIGH DURHAM PTSUNNY   84  56  38 VRB7      30.18F
ROCKY MOUNT    MOSUNNY   87  57  35 NE6G18    30.18F
ROANOKE RAPIDS NOT AVBL
FAYETTEVILLE   MOSUNNY   85  58  39 E8        30.16F
HOFFMAN        MOSUNNY   84  55  37 NE9       30.17F

.........WESTERN NC.........

CITY           SKY/WX    TMP DP  RH WIND       PRES   REMARKS
CHARLOTTE      MOSUNNY   84  55  36 E7        30.19F
GREENSBORO     PTSUNNY   81  58  45 VRB3      30.20F
HICKORY        NOT AVBL
BOONE          NOT AVBL
ASHEVILLE      NOT AVBL

.....................REST OF SOUTH CAROLINA.....................

.........EASTERN SC.........

CITY           SKY/WX    TMP DP  RH WIND       PRES   REMARKS
CHARLESTON     PTSUNNY   88  71  57 NE10      30.10F HX  94
BEAUFORT MCAS  CLOUDY    85  72  65 N9        30.11F HX  91
HILTON HEAD    PTSUNNY   82  72  69 N6        30.11F

.........CENTRAL SC.........

CITY           SKY/WX    TMP DP  RH WIND       PRES   REMARKS
COLUMBIA       PTSUNNY   88  63  43 NE7       30.14F
ORANGEBURG     PTSUNNY   86  67  52 E10       30.14S
SUMTER SHAW    PTSUNNY   86  65  48 E13       30.14F

.........WESTERN SC.........

CITY           SKY/WX    TMP DP  RH WIND       PRES   REMARKS
GREENVILLE     NOT AVBL
ROCK HILL      SUNNY     83  56  39 E7        30.19F
ANDERSON       MOSUNNY   82  64  54 E9        30.18F
CLEMSON        NOT AVBL
GREENWOOD      MOSUNNY   84  65  52 MISG      30.18F


...................COASTAL AND OFFSHORE REPORTS..................

................LOCAL PIERS AND NC RESERVE................


STATION/POSITION TIME  SKY/WX   TEMP    WIND        PRES    VSBY
                                AIR SEA DIR/SP/G
                 (UTC)          (F)     (DEG/KT/KT) (MB)    (MI)
JOHNY MRCER PIER 1700            79 84   50/ 12/ 15 1020.3F
NC RESRV MASNBRO NOT AVBL
OCEAN CREST PIER NOT AVBL
SPRINGMAID  PIER 1700            81 83   30/ 12/ 13 1020.3F


................COASTAL AND OFFSHORE BUOYS................


STATION/POSITION TIME  SKY/WX   TEMP    WIND        PRES    VSBY
                                AIR SEA DIR/SP/G
                 (UTC)          (F)     (DEG/KT/KT) (MB)    (MI)
DIMNDSHOAL 41025 1750            79 82   30/ 19/ 23 1020.1F
WVE H/P(F/S)=  4/ 5 WND WVE H/P(F/S)=  3/ 5 SWL H/P/D(F/S/D)=  2/110/ 8

CAPE LOOKOUT     1800            79      40/ 21/ 22 1020.1F
ONSLOW BAY 41036 NOT AVBL
ONSLOW BAY 41064 1708            80 82   50/ 17/ 21 1020.6F
ONSLOW BAY 41159 1725               82                N/A
WVE H/P(F/S)=  5/ 5 WND WVE H/P(F/S)=  5/ 5 SWL H/P/D(F/S/D)=  2/110/12

5SE WRITBC 41038 1708            80 82   60/ 14/ 19 1020.6F
MASNBO INL 41110 1719               82                N/A
WVE H/P(F/S)=  4/ 5 WND WVE H/P(F/S)=  3/ 5 SWL H/P/D(F/S/D)=  2/130/12

WILM HARBR 41108 1711               83                N/A
WVE H/P(F/S)=  4/ 5 WND WVE H/P(F/S)=  3/ 5

27SE WRITB 41037 1700            76 82   60/ 17/ 21   N/A
FRYING PAN 41013 1750            81 81   40/ 19/ 23 1019.9S
WVE H/P(F/S)=  5/ 5 WND WVE H/P(F/S)=  5/ 5 SWL H/P/D(F/S/D)=  2/120/11

SUNST NRSH 41024 1708            81      70/ 10/ 14 1020.2F
CAPRS NRSH 41029 NOT AVBL
EDISTO     41004 1750            82 85   40/ 10/ 14 1018.8F
WVE H/P(F/S)=  3/ 5 WND WVE H/P(F/S)=  2/ 5 SWL H/P/D(F/S/D)=  2/ 5



..........OFFSHORE BUOYS BEYOND 100 NM OFFSHORE...........
.....IN A TRIANGLE---HAT TO BERMUDA TO BAHAMAS TO HAT.....


STATION/POSITION TIME  SKY/WX   TEMP    WIND        PRES    VSBY
                                AIR SEA DIR/SP/G
                 (UTC)          (F)     (DEG/KT/KT) (MB)    (MI)
150E HAT   41001 1700            79 82   70/ 12/ 14 1019.5F
W BERMUDA  41048 1750            84 84  230/ 10/ 12 1019.4F
WVE H/P(F/S)=  4/11 WND WVE H/P(F/S)=  2/ 4 SWL H/P/D(F/S/D)=  3/100/11

ATLANTIC S 41049 1750            85 89  360/  4/  6 1020.2F
WVE H/P(F/S)=  5/10 SWL H/P/D(F/S/D)=  5/120/10

E BAHAMAS  41046 1750            85 86  110/ 17/ 19 1017.8F
WVE H/P(F/S)=  8/10 WND WVE H/P(F/S)=  5/ 7 SWL H/P/D(F/S/D)=  7/100/10

NE BAHAMAS 41047 1750            85 86  130/  8/ 10 1019.1F
WVE H/P(F/S)=  5/11 WND WVE H/P(F/S)=  2/ 4 SWL H/P/D(F/S/D)=  5/110/11

120E CANVRL41010 1720            83 87  110/  6/  8 1018.4F

END


USA.gov is the U.S. government's official web portal to all federal, state and local government web resources and services.